Regional Weather Roundup
Issued by NWS

Home | Current Version | Previous Version | Graphics & Text | Print | Product List | Glossary On
Versions: 1 2 3 4 5 6 7 8 9 10 11 12 13 14 15 16 17 18 19 20 21 22 23 24 25 26 27 28 29 30 31 32 33 34 35 36 37 38 39 40 41 42 43 44 45 46 47 48 49 50
704
ASUS45 KBOU 220807
RWRCO

WEATHER ROUNDUP FOR COLORADO
NATIONAL WEATHER SERVICE DENVER/BOULDER CO
200 AM MDT WED MAR 22 2017

NOTE: "FAIR" INDICATES FEW OR NO CLOUDS BELOW 12000 FEET WITH NO
SIGNIFICANT WEATHER AND/OR OBSTRUCTIONS TO VISIBILITY.

COZ001>005-013-030-031-220900-
...NORTHWEST COLORADO...

CITY           SKY/WX    TMP DP  RH WIND       PRES   REMARKS
CRAIG          CLOUDY    43  28  55 VRB3      30.04F
HAYDEN         CLOUDY    48  25  40 E12       30.06F
MEEKER         MOCLDY    46  28  49 NE6       30.04F
MOUNT WERNER   NOT AVBL
STEAMBOAT SPGS CLOUDY    49  29  46 E8        30.08F
WALDEN         NOT AVBL
$$

COZ006>008-011-220900-
...WEST CENTRAL VALLEYS...

CITY           SKY/WX    TMP DP  RH WIND       PRES   REMARKS
GRAND JUNCTION FAIR      57  31  37 E13       29.98F
MONTROSE       FAIR      49  30  48 SE6       30.08S
EAGLE          NOT AVBL
RIFLE          FAIR      50  32  50 SW3       30.04F
DELTA          FAIR      56  33  41 E9        30.04F
NUCLA          FAIR      50  28  43 E12       30.10F
$$

COZ017>023-064>068-220900-
...SOUTHWEST COLORADO...

CITY           SKY/WX    TMP DP  RH WIND       PRES   REMARKS
DURANGO        FAIR      41  28  60 CALM      30.16S
CORTEZ         FAIR      40  30  67 NE6       30.11S
PAGOSA SPRINGS FAIR      40  29  66 CALM      30.21F
TELLURIDE      NOT AVBL
WOLF CREEK PAS MOCLDY    34  21  60 S13G22    30.42S WCI  25
$$

COZ009-010-012-014-032>034-037-058>063-220900-
...CENTRAL COLORADO...

CITY           SKY/WX    TMP DP  RH WIND       PRES   REMARKS
ASPEN          FAIR      44  27  51 S8        30.14F
BUENA VISTA    FAIR      33  27  80 CALM      30.22F
COPPER MTN     FAIR      37  16  41 SW10G28   30.34F
BERTHOUD PASS  FAIR      30  19  64 W30G46    30.31F WCI  15
COTTONWOOD PAS FAIR      43  27  52 CALM      30.27F
GUNNISON       FAIR      36  30  79 CALM      30.22F
KREMMLING      MOCLDY    41  28  60 CALM      30.16S
LEADVILLE      FAIR      31  21  66 VRB3      30.25S
MONARCH PASS   FAIR      32  21  64 SW21      30.46F WCI  20
SALIDA         FAIR      42  34  73 S7        30.28F
SUNLIGHT       NOT AVBL
WILKERSON PASS FAIR      32  23  69 SW15G23   30.33F WCI  22
$$

COZ069>075-220900-
...SAN LUIS VALLEY/SANGRE DE CRISTO MOUNTAINS...

CITY           SKY/WX    TMP DP  RH WIND       PRES   REMARKS
ALAMOSA        FAIR      36  25  64 S7        30.19F
LA VETA PASS   FAIR      43  23  45 S18G28    30.31F
SAGUACHE       FAIR      36  27  69 N7        30.21F
$$

COZ035-036-038>040-220900-
...NORTHERN COLORADO FRONT RANGE...

CITY           SKY/WX    TMP DP  RH WIND       PRES   REMARKS
DENVER INTL AP FAIR      44  34  67 S21       30.07F
DMNS CITY PARK   N/A     45  35  66 NW5       30.07S
AURORA         PTCLDY    45  35  68 S22G30    30.06F
FRONT RANGE AP FAIR      45  36  70 S16G24    30.08F
ERIE MUNI ARPT FAIR      42  36  76 NW3       30.08S
BOULDER MUN AP FAIR      45  34  65 CALM      30.07S
CENTENNIAL     FAIR      46  34  62 S14       30.08F
BROOMFIELD     FAIR      45  36  70 N13       30.08F
FORT COLLINS   FAIR      39  33  79 N8        30.10S
LONGMONT       FAIR      47  37  67 NW9G16    30.10R
$$

COZ041-046-047-076>085-087-088-220900-
...PIKES PEAK/PALMER DIVIDE AND SOUTHERN FOOTHILLS...

CITY           SKY/WX    TMP DP  RH WIND       PRES   REMARKS
COLO. SPRINGS  CLOUDY    40  31  70 SE9       30.22F
A. F. ACADEMY  CLOUDY    39  32  74 S13       30.19F
SCHRIEVER AFB  CLOUDY    36  30  78 S5        30.22F
ELLICOTT         N/A    N/A N/A N/A SE12      30.19F
FALCON         CLOUDY    36  31  82 S8        30.22F
FORT CARSON    MOCLDY    36  30  79 SE7       30.20F
LIMON          FAIR      34  26  72 SE10      30.19S WCI  26
MONUMENT HILL  FAIR      34  32  93 S22G29    30.15F WCI  22
TRINIDAD       FAIR      48  35  60 SW7       30.15F
$$

COZ042>045-048>051-090-091-220900-
...NORTHEAST COLORADO...

CITY           SKY/WX    TMP DP  RH WIND       PRES   REMARKS
GREELEY ARPT   FAIR      42  31  64 E16G23    30.10S
AKRON          FAIR      37  22  54 SE20      30.17F
BURLINGTON     CLOUDY    41  27  57 SE22      30.22S
WRAY           NOT AVBL
STERLING       FAIR      41  27  56 SE10      30.18R
HOLYOKE        CLOUDY    37  32  81 SE17G25   30.24S
FORT MORGAN    FAIR      39  25  57 SE15G21   30.16F
$$

COZ086-089-092>099-220900-
...SOUTHEAST COLORADO...

CITY           SKY/WX    TMP DP  RH WIND       PRES   REMARKS
PUEBLO         FAIR      40  31  70 NE9       30.19F
LA JUNTA       FAIR      43  31  62 E17       30.16F
LAMAR          FAIR      43  25  49 E10       30.20F
SPRINGFIELD      N/A     37  33  85 SE7       30.19F
$$




USA.gov is the U.S. government's official web portal to all federal, state and local government web resources and services.